When you browse on this site, cookies collect data to enhance your experience and personalize the content and advertising you see.
Visit our Privacy Policy to learn more. By continuing to use the site, you agree to this use of cookies and data.
  • In Romania
  • List of Countries
  • For 7 days
  • Water Temperature
  • Satellite Maps
  • Weather Map
  • Weather Widgets
  • user-avatar
    Login

    Hourly Weather Dublin

    Today, 21 January, Monday

    Time Temperature Precipitation Wind Pressure Humidity
    00:00 -1°C° 0 mm 2 mps 752 mmHg 91%
    01:00 -1°C° 0 mm 2 mps 752 mmHg 90%
    02:00 -1°C° 0 mm 2 mps 752 mmHg 90%
    03:00 -1°C° 0 mm 2 mps 752 mmHg 90%
    04:00 -1°C° 0 mm 2 mps 751 mmHg 89%
    05:00 -1°C° 0 mm 2 mps 751 mmHg 88%
    06:00 -1°C° 0 mm 2 mps 750 mmHg 87%
    07:00 -1°C° 0 mm 3 mps 750 mmHg 86%
    08:00 0°C° 0 mm 3 mps 749 mmHg 84%
    09:00 0°C° 0 mm 3 mps 749 mmHg 83%
    10:00 0°C° 0 mm 5 mps 748 mmHg 79%
    11:00 +1°C° 0 mm 6 mps 746 mmHg 76%
    12:00 +2°C° 0 mm 7 mps 745 mmHg 73%
    13:00 +2°C° 0.2 mm 7 mps 744 mmHg 76%
    14:00 +2°C° 0.2 mm 8 mps 742 mmHg 79%
    15:00 +2°C° 0.2 mm 9 mps 741 mmHg 82%
    16:00 +2°C° 0.9 mm 9 mps 740 mmHg 84%
    17:00 +1°C° 0.9 mm 9 mps 739 mmHg 86%
    18:00 +1°C° 0.9 mm 9 mps 738 mmHg 88%
    19:00 0°C° 0.1 mm 9 mps 737 mmHg 84%
    20:00 -1°C° 0.1 mm 8 mps 737 mmHg 81%
    21:00 -2°C° 0.1 mm 7 mps 737 mmHg 78%
    22:00 -2°C° 0 mm 7 mps 737 mmHg 80%
    23:00 -2°C° 0 mm 8 mps 737 mmHg 82%

    Tomorrow, 22 January, Tuesday

    Time Temperature Precipitation Wind Pressure Humidity
    00:00 -2°C° 0 mm 8 mps 737 mmHg 84%
    01:00 -2°C° 0 mm 7 mps 737 mmHg 83%
    02:00 -3°C° 0 mm 7 mps 736 mmHg 82%
    03:00 -3°C° 0 mm 6 mps 736 mmHg 82%
    04:00 -3°C° 0 mm 6 mps 736 mmHg 83%
    05:00 -3°C° 0 mm 6 mps 735 mmHg 85%
    06:00 -3°C° 0 mm 6 mps 735 mmHg 86%
    07:00 -3°C° 0 mm 6 mps 735 mmHg 85%
    08:00 -3°C° 0 mm 6 mps 735 mmHg 84%
    09:00 -3°C° 0 mm 6 mps 735 mmHg 83%
    10:00 -2°C° 0.1 mm 7 mps 735 mmHg 80%
    11:00 -2°C° 0.1 mm 7 mps 735 mmHg 76%
    12:00 -1°C° 0.1 mm 7 mps 735 mmHg 72%
    13:00 -1°C° 0.1 mm 7 mps 735 mmHg 72%
    14:00 -1°C° 0.1 mm 6 mps 735 mmHg 71%
    15:00 -1°C° 0.1 mm 6 mps 735 mmHg 70%
    16:00 -1°C° 0 mm 5 mps 735 mmHg 74%
    17:00 -2°C° 0 mm 5 mps 735 mmHg 79%
    18:00 -3°C° 0 mm 4 mps 736 mmHg 83%
    19:00 -3°C° 0 mm 4 mps 736 mmHg 85%
    20:00 -3°C° 0 mm 4 mps 736 mmHg 87%
    21:00 -3°C° 0 mm 4 mps 736 mmHg 89%
    22:00 -3°C° 0 mm 4 mps 736 mmHg 89%
    23:00 -4°C° 0 mm 4 mps 737 mmHg 90%

    Day after tomorrow, 23 January, Wednesday

    Time Temperature Precipitation Wind Pressure Humidity
    00:00 -4°C° 0 mm 4 mps 737 mmHg 90%
    01:00 -3°C° 0 mm 4 mps 737 mmHg 90%
    02:00 -3°C° 0 mm 4 mps 737 mmHg 90%
    03:00 -3°C° 0 mm 4 mps 738 mmHg 90%
    04:00 -3°C° 0 mm 4 mps 738 mmHg 91%
    05:00 -2°C° 0 mm 3 mps 738 mmHg 92%
    06:00 -2°C° 0 mm 3 mps 738 mmHg 92%
    07:00 -1°C° 0 mm 3 mps 739 mmHg 93%
    08:00 -1°C° 0 mm 3 mps 739 mmHg 93%
    09:00 -1°C° 0 mm 3 mps 740 mmHg 94%
    10:00 0°C° 0 mm 3 mps 740 mmHg 90%
    11:00 +2°C° 0 mm 3 mps 740 mmHg 86%
    12:00 +3°C° 0 mm 3 mps 741 mmHg 82%
    13:00 +3°C° 0 mm 3 mps 741 mmHg 82%
    14:00 +3°C° 0 mm 3 mps 741 mmHg 82%
    15:00 +3°C° 0 mm 3 mps 741 mmHg 82%
    16:00 +2°C° 0 mm 3 mps 741 mmHg 86%
    17:00 +2°C° 0 mm 2 mps 742 mmHg 91%
    18:00 +1°C° 0 mm 2 mps 742 mmHg 95%
    19:00 +1°C° 0 mm 2 mps 743 mmHg 94%
    20:00 +1°C° 0 mm 2 mps 743 mmHg 94%
    21:00 +1°C° 0 mm 2 mps 744 mmHg 94%
    22:00 +1°C° 0 mm 2 mps 744 mmHg 92%
    23:00 +1°C° 0 mm 2 mps 744 mmHg 90%

    24 January, Thursday

    Time Temperature Precipitation Wind Pressure Humidity
    00:00 +2°C° 0 mm 2 mps 744 mmHg 88%
    01:00 +1°C° 0.2 mm 3 mps 744 mmHg 88%
    02:00 +1°C° 0.2 mm 3 mps 744 mmHg 89%
    03:00 +2°C° 0.2 mm 3 mps 744 mmHg 89%
    04:00 +1°C° 0.5 mm 4 mps 744 mmHg 91%
    05:00 +3°C° 0.5 mm 4 mps 744 mmHg 93%
    06:00 +3°C° 0.5 mm 4 mps 743 mmHg 95%
    07:00 +4°C° 0.9 mm 4 mps 744 mmHg 95%
    08:00 +5°C° 0.9 mm 4 mps 744 mmHg 96%
    09:00 +5°C° 0.9 mm 4 mps 744 mmHg 97%
    10:00 +7°C° 0 mm 4 mps 744 mmHg 95%
    11:00 +8°C° 0 mm 5 mps 744 mmHg 94%
    12:00 +9°C° 0 mm 6 mps 745 mmHg 93%
    13:00 +9°C° 0 mm 6 mps 745 mmHg 92%
    14:00 +8°C° 0 mm 6 mps 745 mmHg 92%
    15:00 +8°C° 0 mm 6 mps 745 mmHg 91%
    16:00 +8°C° 0 mm 6 mps 745 mmHg 92%
    17:00 +7°C° 0 mm 5 mps 746 mmHg 93%
    18:00 +6°C° 0 mm 5 mps 746 mmHg 94%
    19:00 +6°C° 0 mm 5 mps 746 mmHg 93%
    20:00 +6°C° 0 mm 5 mps 746 mmHg 93%
    21:00 +6°C° 0 mm 5 mps 747 mmHg 93%
    22:00 +6°C° 0 mm 4 mps 747 mmHg 93%
    23:00 +6°C° 0 mm 4 mps 747 mmHg 94%

    25 January, Friday

    Time Temperature Precipitation Wind Pressure Humidity
    00:00 +6°C° 0 mm 4 mps 747 mmHg 95%
    01:00 +6°C° 0 mm 4 mps 746 mmHg 95%
    02:00 +6°C° 0 mm 4 mps 746 mmHg 94%
    03:00 +6°C° 0 mm 5 mps 746 mmHg 94%
    04:00 +6°C° 0 mm 5 mps 746 mmHg 94%
    05:00 +6°C° 0 mm 5 mps 746 mmHg 93%
    06:00 +5°C° 0 mm 6 mps 745 mmHg 93%
    07:00 +5°C° 0 mm 6 mps 745 mmHg 93%
    08:00 +5°C° 0 mm 6 mps 745 mmHg 92%
    09:00 +6°C° 0 mm 7 mps 745 mmHg 91%
    10:00 +6°C° 0 mm 7 mps 745 mmHg 91%
    11:00 +6°C° 0 mm 7 mps 745 mmHg 90%
    12:00 +8°C° 0 mm 7 mps 745 mmHg 89%
    13:00 +8°C° 0.1 mm 7 mps 745 mmHg 90%
    14:00 +8°C° 0.1 mm 6 mps 744 mmHg 91%
    15:00 +8°C° 0.1 mm 6 mps 744 mmHg 92%
    16:00 +8°C° 0.2 mm 5 mps 744 mmHg 93%
    17:00 +8°C° 0.2 mm 4 mps 743 mmHg 95%
    18:00 +8°C° 0.2 mm 3 mps 743 mmHg 96%
    19:00 +8°C° 0.1 mm 2 mps 743 mmHg 96%
    20:00 +7°C° 0.1 mm 2 mps 743 mmHg 96%
    21:00 +8°C° 0.1 mm 1 mps 742 mmHg 95%
    22:00 +7°C° 1.6 mm 2 mps 741 mmHg 96%
    23:00 +7°C° 1.6 mm 3 mps 741 mmHg 96%

    26 January, Saturday

    Time Temperature Precipitation Wind Pressure Humidity
    00:00 +8°C° 1.6 mm 3 mps 740 mmHg 96%
    01:00 +8°C° 1.9 mm 3 mps 739 mmHg 96%
    02:00 +8°C° 1.9 mm 3 mps 738 mmHg 96%
    03:00 +8°C° 1.9 mm 3 mps 737 mmHg 96%
    04:00 +7°C° 2 mm 3 mps 736 mmHg 96%
    05:00 +6°C° 2 mm 4 mps 735 mmHg 96%
    06:00 +5°C° 2 mm 4 mps 734 mmHg 97%
    07:00 +3°C° 4.4 mm 6 mps 734 mmHg 94%
    08:00 +1°C° 4.4 mm 8 mps 734 mmHg 91%
    09:00 0°C° 4.4 mm 10 mps 735 mmHg 88%
    10:00 0°C° 0.4 mm 10 mps 735 mmHg 86%
    11:00 0°C° 0.4 mm 10 mps 736 mmHg 84%
    12:00 +1°C° 0.4 mm 10 mps 737 mmHg 82%
    13:00 +1°C° 0.1 mm 9 mps 738 mmHg 80%
    14:00 +1°C° 0.1 mm 9 mps 738 mmHg 78%
    15:00 +1°C° 0.1 mm 8 mps 738 mmHg 76%
    16:00 0°C° 0 mm 8 mps 739 mmHg 77%
    17:00 -1°C° 0 mm 7 mps 739 mmHg 79%
    18:00 -2°C° 0 mm 7 mps 739 mmHg 81%
    19:00 -2°C° 0 mm 7 mps 739 mmHg 81%
    20:00 -2°C° 0 mm 6 mps 739 mmHg 81%
    21:00 -2°C° 0 mm 6 mps 739 mmHg 82%
    22:00 -2°C° 0 mm 6 mps 739 mmHg 83%
    23:00 -2°C° 0 mm 6 mps 739 mmHg 83%
    Show more